TEMELIN Weather Reports


time (UTC)temp
C
wind
direction
speed
KPH
gust
KPH
rain 1hr
cm
rain 24hr
cm
rain mn
cm
humidity
%
barometer
mb
20260905222221 15 290 19.3 0.0 0.00 0.00 0.00 62
20260905211817 16 300 14.5 0.0 0.00 0.00 0.00 59
20260905201818 17 300 11.3 0.0 0.00 0.00 0.00 59
20260905192306 17 280 11.3 0.0 0.00 0.00 0.00 52
20260905181835 18 270 19.3 35.4 0.00 0.00 0.00 48
20260905171835 20 270 19.3 0.0 0.00 0.00 0.00 56
20260905162252 20 270 22.5 0.0 0.00 0.00 0.00 56
20260905151727 20 270 19.3 0.0 0.00 0.00 0.00 52
20260905141728 21 270 22.5 0.0 0.00 0.00 0.00 49
20260905132031 20 270 22.5 0.0 0.00 0.00 0.00 52
20260905121929 18 280 22.5 0.0 0.00 0.00 0.00 59
20260905111845 20 290 25.7 46.7 0.00 0.00 0.00 56
20260905102240 17 280 19.3 0.0 0.00 0.00 0.00 67
20260905091829 16 270 14.5 0.0 0.00 0.00 0.00 77
20260905081822 13 230 11.3 0.0 0.00 0.00 0.00 87
20260905072123 12 220 11.3 0.0 0.00 0.00 0.00 93
20260905061824 12 240 14.5 0.0 0.00 0.00 0.00 93
20260905051822 12 270 19.3 0.0 0.00 0.00 0.00 87
20260905042224 16 320 22.5 0.0 0.00 0.00 0.00 77
20260905031822 17 310 14.5 0.0 0.00 0.00 0.00 72
20260905021822 17 360 19.3 0.0 0.00 0.00 0.00 63
20260905012123 17 20 32.2 0.0 0.00 0.00 0.00 72
20260905001837 22 280 11.3 0.0 0.00 0.00 0.00 53